DEST12 YSWG-YSHW

Flight info

Callsign DEST12
Flight time 1h 6m
Altitude 7500
Route DCT
Aircraft H60/M-SDFGRY/LB1

Departure

Time 2026-05-08 13:08
Airport Wagga Wagga Airport (YSWG)

Arrival

Time 2026-05-08 14:15
Airport Holsworthy (Military) Airport (YSHW)
Time Latitude Longitude Altitude Speed Heading
2026-05-08 13:00 -35.15884 147.47023 705 ft 0 kts 180°
2026-05-08 13:07 -35.15887 147.47026 720 ft 5 kts 73°
2026-05-08 13:08 -35.15891 147.47142 728 ft 17 kts 51°
2026-05-08 13:08 -35.15870 147.47197 721 ft 2 kts 62°
2026-05-08 13:08 -35.15787 147.47446 894 ft 48 kts 54°
2026-05-08 13:08 -35.15661 147.47895 1443 ft 82 kts 74°
2026-05-08 13:09 -35.15422 147.48805 2286 ft 137 kts 79°
2026-05-08 13:09 -35.15105 147.50039 2846 ft 163 kts 81°
2026-05-08 13:09 -35.14870 147.51498 2991 ft 186 kts 84°
2026-05-08 13:09 -35.14605 147.53106 2819 ft 191 kts 87°
2026-05-08 13:10 -35.14447 147.54611 3334 ft 168 kts 89°
2026-05-08 13:10 -35.14454 147.56045 3698 ft 173 kts 97°
2026-05-08 13:10 -35.14615 147.57544 3760 ft 179 kts 104°
2026-05-08 13:10 -35.14989 147.58901 4227 ft 159 kts 121°
2026-05-08 13:11 -35.15546 147.60032 4780 ft 158 kts 114°
2026-05-08 13:11 -35.15812 147.61402 4885 ft 176 kts 99°
2026-05-08 13:11 -35.15797 147.62955 4819 ft 186 kts 88°
2026-05-08 13:11 -35.15568 147.64482 5004 ft 177 kts 83°
2026-05-08 13:12 -35.15419 147.65962 5270 ft 178 kts 88°
2026-05-08 13:12 -35.15290 147.67477 5402 ft 176 kts 90°
2026-05-08 13:12 -35.15219 147.68947 5502 ft 171 kts 91°
2026-05-08 13:12 -35.15150 147.70404 5551 ft 171 kts 91°
2026-05-08 13:13 -35.15080 147.71858 5534 ft 171 kts 91°
2026-05-08 13:13 -35.15009 147.73303 5539 ft 169 kts 91°
2026-05-08 13:13 -35.14959 147.74244 5558 ft 166 kts 91°
2026-05-08 13:13 -35.14884 147.75651 5554 ft 165 kts 91°
2026-05-08 13:14 -35.14786 147.77506 5558 ft 165 kts 91°
2026-05-08 13:14 -35.14734 147.78451 5539 ft 165 kts 91°
2026-05-08 13:14 -35.14632 147.80307 5559 ft 165 kts 91°
2026-05-08 13:14 -35.14580 147.81230 5556 ft 164 kts 91°
2026-05-08 13:15 -35.14502 147.82615 5555 ft 163 kts 91°
2026-05-08 13:15 -35.14423 147.83998 5559 ft 163 kts 91°
2026-05-08 13:15 -35.14191 147.85338 5351 ft 161 kts 71°
2026-05-08 13:15 -35.13752 147.86494 5456 ft 140 kts 67°
2026-05-08 13:16 -35.13330 147.87577 5493 ft 141 kts 69°
2026-05-08 13:16 -35.12887 147.88648 5496 ft 140 kts 69°
2026-05-08 13:16 -35.12447 147.89714 5491 ft 141 kts 69°
2026-05-08 13:16 -35.12010 147.90772 5492 ft 141 kts 69°
2026-05-08 13:17 -35.11568 147.91840 5492 ft 141 kts 69°
2026-05-08 13:17 -35.11127 147.92912 5488 ft 141 kts 69°
2026-05-08 13:17 -35.10682 147.93983 5487 ft 141 kts 69°
2026-05-08 13:17 -35.10241 147.95051 5490 ft 141 kts 69°
2026-05-08 13:18 -35.09800 147.96121 5491 ft 141 kts 69°
2026-05-08 13:18 -35.09357 147.97192 5489 ft 141 kts 69°
2026-05-08 13:18 -35.08954 147.98159 6168 ft 116 kts 70°
2026-05-08 13:18 -35.08530 147.99027 7084 ft 140 kts 70°
2026-05-08 13:19 -35.08010 148.00297 6820 ft 192 kts 70°
2026-05-08 13:19 -35.07436 148.01856 6256 ft 200 kts 71°
2026-05-08 13:19 -35.06934 148.03382 6186 ft 196 kts 75°
2026-05-08 13:19 -35.06492 148.04969 5957 ft 198 kts 77°
2026-05-08 13:20 -35.06099 148.06588 5701 ft 198 kts 77°
2026-05-08 13:20 -35.05710 148.08165 5687 ft 192 kts 79°
2026-05-08 13:20 -35.05371 148.09775 5428 ft 197 kts 81°
2026-05-08 13:20 -35.05051 148.11357 5536 ft 180 kts 81°
2026-05-08 13:21 -35.04768 148.12805 5491 ft 182 kts 82°
2026-05-08 13:21 -35.04480 148.14292 5649 ft 178 kts 82°
2026-05-08 13:21 -35.04194 148.15776 5629 ft 180 kts 82°
2026-05-08 13:21 -35.03851 148.17196 5389 ft 174 kts 74°
2026-05-08 13:22 -35.03432 148.18567 5386 ft 172 kts 74°
2026-05-08 13:22 -35.03016 148.19937 5358 ft 172 kts 74°
2026-05-08 13:22 -35.02602 148.21305 5340 ft 172 kts 74°
2026-05-08 13:22 -35.02185 148.22677 5333 ft 172 kts 74°
2026-05-08 13:23 -35.01771 148.24045 5331 ft 172 kts 74°
2026-05-08 13:23 -35.01357 148.25416 5325 ft 172 kts 74°
2026-05-08 13:23 -35.00943 148.26800 5326 ft 173 kts 74°
2026-05-08 13:23 -35.00530 148.28180 5324 ft 173 kts 74°
2026-05-08 13:24 -35.00115 148.29561 5329 ft 173 kts 74°
2026-05-08 13:24 -34.99709 148.30921 5327 ft 173 kts 74°
2026-05-08 13:24 -34.99300 148.32303 5329 ft 173 kts 74°
2026-05-08 13:24 -34.98891 148.33686 5329 ft 173 kts 74°
2026-05-08 13:25 -34.98482 148.35063 5326 ft 172 kts 74°
2026-05-08 13:25 -34.98075 148.36442 5325 ft 172 kts 74°
2026-05-08 13:25 -34.97670 148.37818 5327 ft 172 kts 74°
2026-05-08 13:25 -34.97268 148.39190 5325 ft 172 kts 74°
2026-05-08 13:26 -34.96870 148.40548 5325 ft 172 kts 74°
2026-05-08 13:26 -34.96468 148.41919 5324 ft 172 kts 74°
2026-05-08 13:26 -34.96064 148.43297 5326 ft 172 kts 74°
2026-05-08 13:26 -34.95664 148.44669 5327 ft 172 kts 74°
2026-05-08 13:27 -34.95263 148.46048 5327 ft 172 kts 74°
2026-05-08 13:27 -34.94865 148.47424 5327 ft 172 kts 74°
2026-05-08 13:27 -34.94468 148.48799 5328 ft 172 kts 74°
2026-05-08 13:27 -34.94071 148.50174 5327 ft 172 kts 74°
2026-05-08 13:28 -34.93675 148.51543 5332 ft 171 kts 74°
2026-05-08 13:28 -34.93286 148.52895 5334 ft 171 kts 74°
2026-05-08 13:28 -34.92892 148.54263 5333 ft 171 kts 74°
2026-05-08 13:28 -34.92498 148.55632 5333 ft 171 kts 74°
2026-05-08 13:29 -34.92105 148.56994 5335 ft 170 kts 74°
2026-05-08 13:29 -34.91708 148.58358 5335 ft 170 kts 74°
2026-05-08 13:29 -34.91313 148.59722 5334 ft 170 kts 74°
2026-05-08 13:29 -34.90931 148.61065 5333 ft 170 kts 74°
2026-05-08 13:30 -34.90542 148.62425 5335 ft 170 kts 74°
2026-05-08 13:30 -34.90154 148.63783 5334 ft 170 kts 74°
2026-05-08 13:30 -34.89763 148.65142 5333 ft 170 kts 74°
2026-05-08 13:30 -34.89374 148.66496 5334 ft 170 kts 74°
2026-05-08 13:31 -34.88985 148.67855 5332 ft 170 kts 74°
2026-05-08 13:31 -34.88596 148.69212 5337 ft 170 kts 74°
2026-05-08 13:31 -34.88209 148.70570 5338 ft 169 kts 74°
2026-05-08 13:31 -34.87823 148.71927 5336 ft 169 kts 74°
2026-05-08 13:32 -34.87441 148.73280 5334 ft 169 kts 74°
2026-05-08 13:32 -34.87057 148.74638 5338 ft 169 kts 74°
2026-05-08 13:32 -34.86673 148.75994 5332 ft 169 kts 74°
2026-05-08 13:32 -34.86289 148.77346 5330 ft 169 kts 74°
2026-05-08 13:33 -34.85908 148.78681 5332 ft 169 kts 74°
2026-05-08 13:33 -34.85524 148.80028 5336 ft 169 kts 74°
2026-05-08 13:33 -34.85138 148.81378 5333 ft 168 kts 74°
2026-05-08 13:33 -34.84754 148.82727 5333 ft 168 kts 74°
2026-05-08 13:34 -34.84368 148.84076 5332 ft 168 kts 74°
2026-05-08 13:34 -34.83983 148.85423 5335 ft 168 kts 74°
2026-05-08 13:34 -34.83597 148.86769 5334 ft 168 kts 74°
2026-05-08 13:34 -34.83217 148.88095 5334 ft 168 kts 74°
2026-05-08 13:35 -34.82832 148.89442 5338 ft 168 kts 75°
2026-05-08 13:35 -34.82444 148.90790 5338 ft 168 kts 74°
2026-05-08 13:35 -34.82056 148.92140 5339 ft 168 kts 75°
2026-05-08 13:35 -34.81670 148.93484 5337 ft 168 kts 75°
2026-05-08 13:36 -34.81282 148.94827 5337 ft 168 kts 75°
2026-05-08 13:36 -34.80893 148.96172 5339 ft 168 kts 75°
2026-05-08 13:36 -34.80504 148.97517 5336 ft 168 kts 75°
2026-05-08 13:36 -34.80120 148.98841 5338 ft 168 kts 75°
2026-05-08 13:37 -34.79731 149.00189 5335 ft 168 kts 75°
2026-05-08 13:37 -34.79341 149.01533 5338 ft 168 kts 75°
2026-05-08 13:37 -34.78951 149.02874 5338 ft 168 kts 75°
2026-05-08 13:37 -34.78559 149.04215 5336 ft 168 kts 75°
2026-05-08 13:38 -34.78167 149.05558 5339 ft 168 kts 75°
2026-05-08 13:38 -34.77777 149.06901 5339 ft 168 kts 75°
2026-05-08 13:38 -34.77390 149.08228 5339 ft 169 kts 75°
2026-05-08 13:38 -34.76996 149.09576 5338 ft 168 kts 75°
2026-05-08 13:39 -34.76602 149.10919 5339 ft 169 kts 75°
2026-05-08 13:39 -34.76207 149.12266 5340 ft 169 kts 75°
2026-05-08 13:39 -34.75809 149.13619 5337 ft 169 kts 75°
2026-05-08 13:39 -34.75412 149.14969 5341 ft 169 kts 75°
2026-05-08 13:40 -34.75013 149.16319 5343 ft 169 kts 75°
2026-05-08 13:40 -34.74614 149.17666 5339 ft 169 kts 75°
2026-05-08 13:40 -34.74219 149.18995 5340 ft 169 kts 75°
2026-05-08 13:40 -34.73816 149.20342 5334 ft 169 kts 75°
2026-05-08 13:41 -34.73411 149.21693 5341 ft 170 kts 75°
2026-05-08 13:41 -34.73010 149.23044 5339 ft 170 kts 75°
2026-05-08 13:41 -34.72605 149.24400 5342 ft 170 kts 75°
2026-05-08 13:41 -34.72202 149.25749 5344 ft 170 kts 75°
2026-05-08 13:42 -34.71795 149.27106 5341 ft 171 kts 75°
2026-05-08 13:42 -34.71393 149.28447 5343 ft 170 kts 75°
2026-05-08 13:42 -34.70988 149.29801 5343 ft 171 kts 75°
2026-05-08 13:42 -34.70581 149.31157 5343 ft 170 kts 75°
2026-05-08 13:43 -34.70174 149.32512 5342 ft 171 kts 75°
2026-05-08 13:43 -34.69767 149.33866 5342 ft 171 kts 75°
2026-05-08 13:43 -34.69358 149.35219 5342 ft 170 kts 75°
2026-05-08 13:43 -34.68946 149.36573 5341 ft 171 kts 75°
2026-05-08 13:44 -34.68539 149.37922 5121 ft 169 kts 75°
2026-05-08 13:44 -34.68133 149.39270 4992 ft 171 kts 75°
2026-05-08 13:44 -34.67727 149.40625 5006 ft 173 kts 75°
2026-05-08 13:44 -34.67322 149.41980 5003 ft 173 kts 75°
2026-05-08 13:45 -34.66913 149.43346 4996 ft 173 kts 75°
2026-05-08 13:45 -34.66499 149.44725 4986 ft 173 kts 75°
2026-05-08 13:45 -34.66089 149.46097 4983 ft 172 kts 75°
2026-05-08 13:45 -34.65676 149.47470 4980 ft 172 kts 75°
2026-05-08 13:46 -34.65265 149.48838 4984 ft 172 kts 75°
2026-05-08 13:46 -34.64859 149.50188 4983 ft 172 kts 75°
2026-05-08 13:46 -34.64449 149.51553 4984 ft 172 kts 75°
2026-05-08 13:46 -34.64037 149.52916 4982 ft 172 kts 75°
2026-05-08 13:47 -34.63607 149.54260 4984 ft 166 kts 71°
2026-05-08 13:47 -34.63068 149.55525 4984 ft 173 kts 66°
2026-05-08 13:47 -34.62488 149.56822 4966 ft 175 kts 66°
2026-05-08 13:47 -34.61909 149.58118 4972 ft 175 kts 66°
2026-05-08 13:48 -34.61330 149.59416 4973 ft 175 kts 66°
2026-05-08 13:48 -34.60751 149.60716 4973 ft 174 kts 66°
2026-05-08 13:48 -34.60170 149.62014 4976 ft 174 kts 66°
2026-05-08 13:48 -34.59600 149.63293 4975 ft 175 kts 66°
2026-05-08 13:49 -34.59021 149.64592 4973 ft 175 kts 66°
2026-05-08 13:49 -34.58446 149.65892 4978 ft 174 kts 66°
2026-05-08 13:49 -34.57869 149.67187 4972 ft 174 kts 66°
2026-05-08 13:49 -34.57292 149.68484 4973 ft 175 kts 66°
2026-05-08 13:50 -34.56715 149.69785 4974 ft 175 kts 66°
2026-05-08 13:50 -34.56139 149.71084 4973 ft 175 kts 66°
2026-05-08 13:50 -34.55560 149.72386 4975 ft 175 kts 66°
2026-05-08 13:50 -34.54979 149.73686 4976 ft 175 kts 66°
2026-05-08 13:51 -34.54404 149.74971 4974 ft 175 kts 66°
2026-05-08 13:51 -34.53823 149.76270 4976 ft 175 kts 66°
2026-05-08 13:51 -34.53240 149.77567 4971 ft 175 kts 66°
2026-05-08 13:51 -34.52656 149.78865 4973 ft 175 kts 66°
2026-05-08 13:52 -34.52070 149.80167 4970 ft 175 kts 66°
2026-05-08 13:52 -34.51487 149.81463 4971 ft 175 kts 66°
2026-05-08 13:52 -34.50897 149.82771 4968 ft 176 kts 66°
2026-05-08 13:52 -34.50318 149.84060 4975 ft 176 kts 66°
2026-05-08 13:53 -34.49732 149.85360 4973 ft 176 kts 66°
2026-05-08 13:53 -34.49146 149.86667 4970 ft 176 kts 66°
2026-05-08 13:53 -34.48562 149.87973 4972 ft 177 kts 66°
2026-05-08 13:53 -34.47976 149.89283 4972 ft 176 kts 66°
2026-05-08 13:54 -34.47392 149.90597 4972 ft 177 kts 66°
2026-05-08 13:54 -34.46809 149.91908 4971 ft 177 kts 66°
2026-05-08 13:54 -34.46222 149.93226 4971 ft 177 kts 66°
2026-05-08 13:54 -34.45635 149.94545 4969 ft 177 kts 66°
2026-05-08 13:55 -34.45058 149.95846 4969 ft 177 kts 66°
2026-05-08 13:55 -34.44474 149.97163 4976 ft 177 kts 66°
2026-05-08 13:55 -34.43298 149.99793 4967 ft 177 kts 66°
2026-05-08 13:56 -34.42709 150.01113 4961 ft 177 kts 66°
2026-05-08 13:56 -34.42115 150.02422 4963 ft 177 kts 66°
2026-05-08 13:56 -34.41525 150.03737 4967 ft 178 kts 66°
2026-05-08 13:56 -34.40934 150.05054 4967 ft 178 kts 66°
2026-05-08 13:57 -34.40343 150.06372 4965 ft 178 kts 66°
2026-05-08 13:57 -34.39761 150.07669 4962 ft 178 kts 66°
2026-05-08 13:57 -34.39167 150.08988 4959 ft 179 kts 66°
2026-05-08 13:57 -34.38575 150.10309 4958 ft 178 kts 66°
2026-05-08 13:58 -34.37979 150.11630 4960 ft 179 kts 66°
2026-05-08 13:58 -34.37378 150.12959 4960 ft 180 kts 66°
2026-05-08 13:58 -34.36782 150.14292 4966 ft 180 kts 66°
2026-05-08 13:58 -34.36188 150.15622 4958 ft 180 kts 66°
2026-05-08 13:59 -34.35582 150.16951 4958 ft 180 kts 66°
2026-05-08 13:59 -34.34977 150.18273 4956 ft 180 kts 66°
2026-05-08 13:59 -34.34369 150.19598 4955 ft 180 kts 66°
2026-05-08 13:59 -34.33767 150.20904 4979 ft 180 kts 66°
2026-05-08 14:00 -34.33154 150.22225 4972 ft 180 kts 66°
2026-05-08 14:00 -34.32537 150.23554 4965 ft 182 kts 66°
2026-05-08 14:00 -34.31916 150.24892 4967 ft 184 kts 66°
2026-05-08 14:00 -34.31294 150.26239 4968 ft 183 kts 66°
2026-05-08 14:01 -34.30670 150.27577 4977 ft 183 kts 66°
2026-05-08 14:01 -34.30046 150.28919 4968 ft 182 kts 66°
2026-05-08 14:01 -34.29633 150.29802 4966 ft 182 kts 66°
2026-05-08 14:01 -34.28799 150.31589 4967 ft 182 kts 66°
2026-05-08 14:02 -34.28385 150.32478 4975 ft 182 kts 66°
2026-05-08 14:02 -34.27757 150.33818 4965 ft 182 kts 66°
2026-05-08 14:02 -34.27139 150.35135 4969 ft 182 kts 66°
2026-05-08 14:02 -34.26505 150.36484 4960 ft 182 kts 66°
2026-05-08 14:03 -34.25876 150.37816 4958 ft 182 kts 66°
2026-05-08 14:03 -34.25258 150.39129 4963 ft 182 kts 66°
2026-05-08 14:03 -34.24630 150.40458 4960 ft 182 kts 66°
2026-05-08 14:03 -34.24002 150.41788 4952 ft 182 kts 66°
2026-05-08 14:04 -34.23370 150.43113 4958 ft 182 kts 66°
2026-05-08 14:04 -34.22741 150.44440 4951 ft 182 kts 66°
2026-05-08 14:04 -34.21906 150.46195 4959 ft 182 kts 66°
2026-05-08 14:04 -34.21477 150.47090 4958 ft 182 kts 66°
2026-05-08 14:05 -34.20841 150.48412 4953 ft 181 kts 66°
2026-05-08 14:05 -34.20215 150.49713 4954 ft 181 kts 66°
2026-05-08 14:05 -34.19579 150.51031 4952 ft 181 kts 66°
2026-05-08 14:05 -34.18946 150.52347 4958 ft 181 kts 66°
2026-05-08 14:06 -34.18309 150.53661 4948 ft 181 kts 66°
2026-05-08 14:06 -34.17674 150.54981 4946 ft 181 kts 66°
2026-05-08 14:06 -34.17040 150.56296 4947 ft 181 kts 66°
2026-05-08 14:06 -34.16405 150.57610 4943 ft 181 kts 66°
2026-05-08 14:07 -34.15769 150.58926 4946 ft 181 kts 66°
2026-05-08 14:07 -34.15137 150.60236 4987 ft 180 kts 66°
2026-05-08 14:07 -34.14504 150.61543 4979 ft 180 kts 66°
2026-05-08 14:07 -34.13870 150.62850 4973 ft 180 kts 66°
2026-05-08 14:08 -34.13236 150.64154 4966 ft 180 kts 66°
2026-05-08 14:08 -34.12601 150.65460 4972 ft 180 kts 66°
2026-05-08 14:08 -34.11966 150.66763 4971 ft 180 kts 66°
2026-05-08 14:08 -34.11366 150.67999 4969 ft 180 kts 66°
2026-05-08 14:09 -34.10733 150.69301 4963 ft 180 kts 66°
2026-05-08 14:09 -34.10100 150.70609 4964 ft 180 kts 66°
2026-05-08 14:09 -34.09468 150.71915 4967 ft 180 kts 66°
2026-05-08 14:09 -34.08832 150.73221 4967 ft 180 kts 66°
2026-05-08 14:10 -34.08191 150.74507 4961 ft 178 kts 64°
2026-05-08 14:10 -34.07526 150.75759 4963 ft 176 kts 64°
2026-05-08 14:10 -34.06858 150.77004 4960 ft 178 kts 64°
2026-05-08 14:10 -34.06183 150.78265 4957 ft 179 kts 64°
2026-05-08 14:11 -34.05509 150.79524 4955 ft 179 kts 64°
2026-05-08 14:11 -34.04842 150.80776 4952 ft 180 kts 64°
2026-05-08 14:11 -34.04169 150.82047 4946 ft 180 kts 64°
2026-05-08 14:11 -34.03489 150.83330 4946 ft 180 kts 64°
2026-05-08 14:12 -34.02816 150.84602 4944 ft 177 kts 64°
2026-05-08 14:12 -34.02149 150.85841 4691 ft 178 kts 63°
2026-05-08 14:12 -34.01503 150.87053 4402 ft 173 kts 63°
2026-05-08 14:12 -34.00997 150.88002 3646 ft 181 kts 63°
2026-05-08 14:13 -34.00328 150.89252 2441 ft 171 kts 67°
2026-05-08 14:13 -33.99769 150.90489 1399 ft 161 kts 68°
2026-05-08 14:13 -33.99352 150.91550 1250 ft 144 kts 67°
2026-05-08 14:13 -33.98979 150.92616 1765 ft 120 kts 90°
2026-05-08 14:14 -33.98949 150.93657 1446 ft 133 kts 98°
2026-05-08 14:14 -33.99320 150.94392 1279 ft 86 kts 153°
2026-05-08 14:14 -33.99699 150.94757 1141 ft 56 kts 144°
2026-05-08 14:14 -34.00033 150.95176 858 ft 79 kts 99°
2026-05-08 14:15 -34.00129 150.95682 665 ft 62 kts
2026-05-08 14:15 -33.99887 150.95781 418 ft 36 kts 314°
2026-05-08 14:15 -33.99745 150.95524 359 ft 29 kts 312°
2026-05-08 14:15 -33.99663 150.95413 335 ft 6 kts 303°
2026-05-08 14:16 -33.99654 150.95381 322 ft 16 kts 308°
2026-05-08 14:16 -33.99594 150.95316 272 ft 8 kts
2026-05-08 14:16 -33.99531 150.95335 266 ft 6 kts 326°
2026-05-08 14:16 -33.99514 150.95325 259 ft 1 kts 311°
2026-05-08 14:17 -33.99515 150.95327 254 ft 1 kts 312°
2026-05-08 14:17 -33.99504 150.95311 249 ft 2 kts 306°
2026-05-08 14:17 -33.99499 150.95309 250 ft 1 kts 135°
2026-05-08 14:17 -33.99511 150.95322 250 ft 0 kts 138°